Home   Weather   Managua   Past weeks

Flag for Nicaragua Past Weather in Managua, Nicaragua — Yesterday and Last 2 Weeks

Now
86 °F

Passing clouds.


Feels Like: 93 °F
Forecast: 77 / 96 °F
Wind: 18 mph from Southeast

Location: Managua A. C. Sandino

Current Time: Apr 24, 2017 at 6:55:47 pm

Latest Report: Apr 24, 2017 at 6:00 pm


Visibility: 6 mi

Pressure: 29.74 "Hg

Humidity: 66%

Dew Point: 73 °F

Location of ManaguaLocation

Past Weather in Managua — Graph

°F

Managua Temperature Yesterday

Maximum temperature yesterday: 99 °F (at 2:00 pm)
Minimum temperature yesterday: 73 °F (at 6:00 am)
Average temperature yesterday: 87 °F

High & Low Weather Summary for the Past Weeks

 TemperatureHumidityPressure
High99 °F (Apr 18, 4:00 pm)94% (Apr 14, 6:00 am)29.92 "Hg (Apr 14, 6:00 am)
Low73 °F (Apr 10, 6:00 am)31% (Apr 23, 2:00 pm)29.68 "Hg (Apr 21, 2:00 pm)
Average86 °F60%29.81 "Hg
* Reported Apr 9 5:00 pm — Apr 24 5:00 pm, Managua, Weather by CustomWeather, © 2017

Note: Actual official high and low records may vary slightly from our data, if they occured in-between our weather recording intervals... More about our weather records

Advertising

Managua Weather History for the Previous 24 Hours

Scroll right to see more
 ConditionsComfort  
Time TempWeatherWind HumidityBarometerVisibility
5:00 pm
Mon, Apr 24
91 °FPassing clouds.16 mph56%29.74 "Hg6 mi
4:00 pm95 °FPassing clouds.14 mph44%29.71 "Hg6 mi
3:00 pm97 °FPassing clouds.14 mph39%29.71 "Hg6 mi
2:00 pm97 °FPassing clouds.16 mph39%29.74 "Hg6 mi
1:00 pm97 °FPassing clouds.16 mph39%29.74 "Hg6 mi
12:00 pm95 °FPassing clouds.12 mph47%29.80 "HgN/A
11:00 am93 °FScattered clouds.12 mph47%29.83 "HgN/A
10:00 am90 °FPassing clouds.18 mph55%29.86 "HgN/A
9:00 am88 °FPassing clouds.12 mph59%29.86 "HgN/A
8:00 am86 °FPassing clouds.12 mph62%29.86 "Hg6 mi
7:00 am82 °FPassing clouds.9 mph74%29.83 "Hg6 mi
6:00 am81 °FPassing clouds.12 mph74%29.80 "Hg5 mi
5:00 am81 °FPassing clouds.No wind74%29.80 "Hg5 mi
4:00 am79 °FPassing clouds.No wind84%29.77 "Hg5 mi
3:00 am81 °FPassing clouds.No wind74%29.77 "Hg5 mi
1:00 am81 °FPassing clouds.No wind79%29.77 "Hg5 mi
12:00 am82 °FPassing clouds.No wind74%29.80 "Hg5 mi
11:00 pm
Sun, Apr 23
82 °FPassing clouds.5 mph66%29.83 "Hg5 mi
10:00 pm86 °FPassing clouds.7 mph55%29.83 "Hg5 mi
9:00 pm86 °FPassing clouds.9 mph55%29.80 "Hg5 mi
8:00 pm88 °FPassing clouds.7 mph52%29.74 "Hg5 mi
7:00 pm91 °FPassing clouds.7 mph46%29.71 "Hg5 mi
6:00 pm93 °FPassing clouds.12 mph44%29.71 "Hg5 mi
Weather by CustomWeather, © 2017

See weather overviewHow to use our weather pages